COSMOS 1275 DEB, 13053

Orbit data source: Space-Track

COSMOS 1275 DEB, 13053 is space debris in LEO originally from a launch on Thu, 04 Jun 1981 UTC launched from the Plesetsk Missile And Space Complex (PKMTR). Debris objects in space refer to the collection of defunct objects orbiting the Earth. Examples of debris include non-operational satellites, rocket bodies, and fragments generated from explosions, collisions, or faulty payload assembly.

Loading next visibility...
Identifier
13053, 1981-053EY
Orbit
LEO
Country
Flag of CISCIS
Related business
Manufacturer
Unknown
Mission
Spacecraft
Bus & Motor
Unknown
Mass
Unknown
Launch date (UTC)
1981-06-04 (45 years ago)
Launch vehicle
Unknown
Launch site
Plesetsk Missile And Space Complex (PKMTR)
Object type
Payload
Rocket body
Debris
Shape & HBR
Unknown shape, 0.1 m
Radar Cross Section
Small (<0.1 m²)

Expand to show TLE details & history
Last TLE update: 20 hours ago

TLE from 20 hours ago
0 COSMOS 1275 DEB
1 13053U 81053EY  26048.31728076  .00000961  00000-0  99441-3 0  9999
2 13053  83.0770 145.8618 0114804  60.5850   0.6249 13.71934899207075
Epoch: 2026-02-17T07:36Z
TLE epoch observation values (Epoch: 2026-02-17T07:36:53.057Z)
Latitude
60.56648°
Longitude
-103.29772°
Altitude
918.329 km
Speed
7.441 km/s
True Right ascension
10h 32m 53s
True Declination
60° 25' 20"
Sunlit
Object was in full shadow at epoch
Visualization orbit readout
Latitude
Unknown
Longitude
Unknown
Altitude
Unknown
Speed
Unknown
Apparent Right ascension
Unknown
Apparent Declination
Unknown
Sunlit
N/A
Visualization observer readout
Local Sidereal Time
06:07:27
Azimuth
Unknown
Elevation
Unknown
Doppler factor
Unknown
Orbital elements
Apogee altitude
1,074.367 km
Perigee altitude
905.193 km
Semi-major axis
7,367.917 km
Eccentricity
0.01148
Inclination
83.077°
RAAN
145.8618°
Arg. of periapsis
60.585°
True anomaly
0.63946°
Mean anomaly
0.6249°
Eccentric anomaly
0.63216°
Mean motion
3.43183 °/min
Orbital period
104.9 mins
BSTAR
0.00099441
Loading maneuver chart data...
Computing Atmospheric mass density...
Loading historical data...
Loading historical data...
Loading historical data...
Loading historical data...
Loading historical data...
Loading historical data...
Loading historical data...

Documentation

Showing up to 5 results
|